Theta_e
341 341 340 340 340 337 334 333 332 331 332 333 333 334 337 338 337 336 336 336 337 340 341 336 335 335 339 341 338 337 336 336 336 336 335 336 336 335 334 332 331 332 332
342 339 339 340 339 337 334 333 332 331 332 333 332 333 335 336 336 336 337 337 339 340 341 338 336 338 339 337 335 335 335 334 334 334 335 335 335 335 332 330 330 330 331
343 340 338 339 341 339 336 335 333 331 331 332 332 333 335 335 336 335 335 335 337 339 340 339 337 337 339 335 334 334 334 333 334 333 333 333 333 333 331 331 329 329 330
343 342 340 337 338 341 339 336 335 332 332 334 333 332 335 335 334 333 332 332 335 336 338 337 336 337 336 333 333 333 333 333 332 332 331 331 331 331 330 329 329 327 326
344 345 343 339 336 338 340 340 340 340 340 338 336 335 336 336 333 332 330 331 334 335 336 335 335 335 333 332 332 331 330 330 330 329 329 329 329 330 329 328 326 325 325
343 345 344 342 337 336 340 341 342 340 340 338 337 335 334 333 335 333 332 334 335 334 333 333 334 332 331 330 328 328 327 328 328 327 327 328 328 328 326 325 323 323 322
344 345 344 342 339 335 339 342 342 341 340 339 335 333 331 331 330 328 332 330 335 334 333 333 332 330 329 328 327 326 325 325 326 325 326 326 327 326 325 323 322 321 321
343 343 343 342 341 336 337 341 343 342 341 339 334 332 330 329 328 326 327 331 333 332 332 330 330 329 329 326 324 324 324 323 324 324 323 323 324 325 323 321 320 320 319
341 341 339 339 339 340 337 338 339 341 341 339 335 332 332 328 328 326 326 332 332 331 330 328 326 326 328 325 324 323 323 322 321 321 321 322 323 322 321 320 319 320 319
338 338 337 335 333 336 338 338 337 338 340 339 336 335 328 327 326 327 328 327 331 331 327 326 325 327 327 326 324 322 322 321 320 320 320 320 320 321 320 318 319 319 319
334 335 336 335 334 334 334 337 336 338 339 337 330 326 324 326 329 327 326 330 330 329 327 325 327 327 326 320 321 322 321 320 319 319 319 319 321 320 319 319 318 318 318
333 334 334 335 334 333 332 333 334 335 332 330 326 325 324 324 324 328 328 330 328 328 327 326 327 326 320 320 321 320 321 319 318 318 318 319 319 320 318 318 318 318 318
332 334 334 332 333 333 333 332 332 333 331 329 325 324 325 325 327 327 328 328 328 327 325 325 328 324 319 320 320 320 319 318 317 318 318 319 319 320 319 318 318 317 317
332 333 333 332 332 334 335 332 331 332 331 329 328 326 325 326 330 330 330 329 328 326 324 325 325 324 318 319 320 320 319 318 317 318 318 318 319 319 318 318 317 317 316
332 333 332 331 332 332 333 332 331 331 331 330 328 328 327 327 327 327 326 327 328 325 321 323 324 323 318 319 320 319 319 318 317 318 318 318 318 319 318 318 317 316 316
332 332 331 329 327 331 330 332 331 330 330 329 329 328 328 327 328 329 326 325 327 322 319 320 322 321 318 319 320 319 318 317 317 317 317 318 317 318 318 318 317 316 315
330 331 329 328 327 327 329 331 332 331 329 328 329 328 327 327 327 326 325 326 324 316 316 318 319 318 318 319 320 318 318 317 317 317 317 317 317 317 317 317 317 317 316
330 329 328 326 325 325 328 329 329 329 330 330 328 328 327 327 326 326 326 325 317 313 315 315 316 317 317 319 319 318 317 316 316 317 316 316 316 316 316 316 316 316 316
330 328 326 325 325 325 326 326 327 327 328 329 329 328 327 327 327 322 324 319 311 311 315 313 314 317 317 318 319 318 318 317 316 316 315 315 315 315 315 315 315 315 315
328 327 326 325 325 324 324 325 325 326 328 328 329 328 327 327 327 326 322 315 309 315 317 313 315 316 318 318 319 318 318 317 316 314 314 314 315 314 314 314 314 312 312
326 326 325 324 324 323 323 324 322 323 325 328 328 328 327 327 327 324 322 314 311 317 317 315 314 317 318 318 317 317 318 318 317 317 316 314 314 313 313 313 312 312 311
324 324 323 323 323 323 322 321 321 321 321 323 325 327 328 327 325 324 321 315 314 319 318 317 317 317 317 317 317 317 314 316 317 317 317 317 317 315 314 314 313 313 312
323 322 323 323 322 322 321 321 320 319 319 319 321 322 324 327 327 323 322 316 318 319 318 318 317 317 317 317 317 316 314 315 314 316 317 318 317 317 317 317 317 316 315
322 322 323 323 322 320 321 320 319 317 316 316 317 318 321 324 325 323 320 317 319 319 317 317 316 316 316 315 316 315 315 315 314 314 315 317 318 318 318 318 317 317 317
322 322 323 322 322 321 321 320 318 317 317 316 315 316 318 319 320 320 319 319 319 318 317 316 316 315 315 315 315 316 319 319 318 316 314 314 315 317 317 318 318 318 318
322 322 321 322 320 320 320 319 318 317 316 315 315 316 317 316 316 316 317 318 319 319 317 316 316 316 315 315 315 316 318 319 318 318 316 315 314 315 315 316 316 316 316
Wind_Speed
12 13 13 14 17 18 23 23 22 20 18 16 18 22 27 32 33 32 32 31 29 27 24 26 27 25 25 27 30 30 29 29 30 29 27 26 26 26 26 29 28 26 27
16 14 12 13 15 15 18 21 21 20 17 16 17 20 24 28 30 31 31 30 27 25 24 25 25 26 27 29 30 33 33 32 32 31 29 26 27 27 26 27 28 26 26
17 14 12 13 14 15 16 16 19 20 19 18 18 20 21 24 25 26 27 27 27 27 25 26 25 26 28 32 32 35 35 34 33 31 31 28 26 26 26 26 25 24 23
16 14 13 13 15 15 16 16 16 18 19 20 20 20 21 22 23 23 24 24 25 26 25 26 25 27 30 32 32 32 32 33 31 30 29 26 24 23 23 23 23 22 22
17 17 15 14 16 17 18 17 17 19 18 20 23 26 24 21 19 19 19 23 27 28 25 25 26 29 32 32 31 30 28 30 29 26 26 24 23 23 22 22 22 22 22
17 17 14 14 15 18 20 20 19 21 22 24 27 26 23 22 21 14 16 19 26 28 27 26 28 32 33 31 29 29 28 26 26 27 26 24 23 23 22 21 22 23 22
20 18 17 15 15 17 18 20 21 23 26 28 29 27 24 23 23 21 13 17 23 27 26 27 31 32 34 33 32 29 29 27 29 29 27 27 24 22 21 21 22 22 22
20 18 16 15 15 16 17 19 21 25 28 30 30 28 21 19 22 14 16 26 24 26 27 28 33 35 35 34 28 29 29 28 30 29 26 23 23 23 22 22 22 22 23
17 15 12 12 12 14 17 19 20 25 28 29 29 24 15 18 24 22 32 25 28 30 27 33 33 34 36 37 28 29 31 30 30 28 26 24 23 22 22 21 21 22 22
16 15 13 11 12 13 15 16 19 24 26 26 29 21 18 18 22 33 34 38 32 31 29 36 36 36 34 29 23 24 31 28 29 30 28 25 22 22 22 22 21 22 21
17 16 14 13 12 12 10 14 17 21 24 23 21 19 19 15 14 25 36 40 37 32 37 37 36 35 29 22 21 33 30 26 30 30 27 24 23 22 21 21 20 20 20
22 21 18 18 15 14 14 15 17 21 22 21 21 26 20 18 18 22 31 34 30 31 38 38 36 34 26 27 35 34 28 29 30 30 28 25 23 22 22 20 20 20 19
27 24 24 20 18 18 18 16 18 20 21 21 23 25 20 18 19 26 32 32 32 30 35 34 36 33 28 32 33 31 30 31 29 30 27 26 23 21 22 20 19 19 18
27 28 26 22 22 21 18 18 17 21 22 25 24 24 23 22 25 25 28 39 36 35 38 37 36 32 27 23 27 31 32 31 31 32 28 25 24 21 20 20 18 18 18
30 30 29 24 24 22 21 19 20 24 26 27 24 24 27 22 21 26 24 34 36 36 37 36 36 34 27 25 24 34 30 29 31 32 29 25 24 21 20 19 18 17 16
32 34 29 22 23 25 21 22 23 23 24 25 27 28 27 21 19 23 43 39 37 36 38 37 37 35 26 20 29 31 28 29 31 31 29 25 23 22 20 18 17 17 16
35 36 29 23 19 22 24 21 22 23 26 26 28 31 30 25 28 27 38 37 35 37 38 36 37 32 23 20 28 29 27 29 30 30 28 26 23 21 21 19 18 17 16
37 35 29 24 20 18 20 21 21 21 22 27 29 32 33 29 32 36 38 37 39 39 39 37 37 32 23 25 30 28 28 26 27 27 26 25 23 21 20 19 18 17 16
42 37 32 26 23 19 17 17 18 20 22 26 30 33 35 34 37 41 40 40 42 42 39 37 39 32 26 26 28 31 27 25 26 26 25 24 22 22 21 20 19 18 18
39 37 32 28 25 21 19 18 17 18 21 25 29 35 37 37 40 44 40 41 46 47 38 38 40 30 28 27 28 28 25 25 25 26 24 23 22 22 22 22 21 20 20
36 37 35 31 27 25 22 18 16 18 20 24 26 33 34 37 43 46 45 41 40 41 42 40 40 36 30 27 29 22 22 23 24 24 22 23 24 24 24 24 23 22 22
35 35 35 32 29 26 24 20 17 19 18 23 22 25 34 35 35 45 43 41 36 33 39 41 36 32 26 30 20 15 4 7 21 25 23 24 24 24 25 25 25 26 25
32 36 37 33 30 26 23 21 16 17 15 17 23 26 28 33 40 42 47 47 33 35 41 39 39 32 27 29 32 12 3 4 7 17 26 28 28 28 28 28 28 28 28
30 33 36 33 29 27 26 24 22 16 13 13 20 21 27 33 36 40 42 43 39 37 40 42 41 35 31 27 27 13 9 9 3 1 15 27 29 32 32 31 31 31 32
32 34 35 32 28 28 27 25 26 17 15 22 21 21 22 23 31 39 48 46 47 45 42 40 38 33 35 30 26 20 13 10 8 3 3 8 23 31 31 33 32 33 34
28 32 33 29 27 31 29 27 26 23 22 22 23 23 21 23 25 30 38 38 42 44 41 33 29 28 27 27 26 27 20 9 9 5 2 4 16 25 32 30 33 35 36
Wind_Direction
150 150 155 158 155 152 153 152 148 147 144 140 134 133 137 144 146 146 145 145 145 138 133 136 140 138 130 125 127 123 122 120 118 116 111 109 108 106 105 108 106 105 103
154 153 158 162 163 163 161 157 152 150 151 150 144 142 144 146 148 149 150 150 146 138 134 135 133 136 133 131 132 129 125 123 118 116 113 112 109 107 106 110 108 104 103
150 150 160 166 168 169 170 166 159 159 158 157 150 147 150 151 152 153 154 155 152 145 140 137 142 141 134 137 135 132 130 127 122 121 117 114 110 107 106 109 108 105 101
155 155 160 172 175 175 174 177 172 167 160 158 157 151 154 154 156 158 159 160 158 152 145 145 149 141 139 141 138 137 134 129 127 122 117 116 112 110 109 109 110 119 116
165 163 162 169 179 182 182 181 174 162 160 154 156 152 152 149 154 159 159 159 157 153 150 155 152 144 144 141 138 136 133 130 128 124 120 122 120 113 113 112 114 112 116
169 165 161 171 179 187 187 185 181 173 169 173 166 156 150 155 147 146 161 167 160 153 154 159 154 149 146 141 137 137 140 140 139 127 123 123 120 116 116 116 116 118 118
169 173 165 173 179 189 191 192 189 180 185 181 171 161 151 154 158 150 171 196 176 160 163 160 158 154 145 139 136 136 140 142 135 134 129 125 119 119 121 122 119 121 119
165 166 167 175 183 190 192 195 195 190 192 184 173 174 187 208 208 199 190 213 183 169 166 165 158 155 150 141 136 146 144 139 135 132 132 128 127 127 127 124 124 124 118
168 169 171 174 178 196 197 200 202 197 199 195 191 191 217 222 231 215 186 203 184 174 175 160 161 160 153 144 135 148 147 139 137 137 133 131 131 131 129 130 127 125 123
172 179 177 181 187 189 202 205 207 207 205 206 203 216 232 212 213 214 193 176 190 176 176 160 159 156 153 150 161 157 148 140 141 137 138 138 139 136 136 132 132 128 127
188 189 184 177 181 190 192 200 205 205 205 197 207 206 184 186 196 204 194 169 187 176 172 161 161 157 151 149 160 152 149 144 144 142 139 142 139 139 133 133 133 131 129
187 181 186 180 185 189 189 196 203 200 198 206 196 186 192 198 190 179 184 181 177 176 171 164 166 159 149 150 146 149 149 149 148 141 138 141 143 141 138 138 137 135 136
191 180 182 187 183 192 195 185 201 205 201 203 195 192 201 193 182 183 176 178 181 174 170 171 168 163 146 149 153 152 150 149 149 142 146 146 144 146 144 140 143 142 143
188 185 178 183 182 188 194 192 202 204 201 195 200 203 198 186 185 185 198 170 177 175 174 174 173 166 153 140 159 162 157 153 149 148 150 151 149 150 149 148 150 151 150
184 184 178 184 185 185 194 196 199 203 202 194 196 194 186 188 197 204 163 156 175 175 173 177 176 172 155 142 156 164 161 157 155 152 154 156 156 156 153 154 158 158 155
183 181 178 183 188 191 188 197 200 196 198 194 193 188 191 196 181 178 173 173 178 176 173 176 177 173 159 145 159 165 164 161 158 156 156 161 163 162 157 164 165 166 164
182 180 177 178 183 183 192 192 197 203 203 200 195 192 191 191 176 156 155 176 178 175 171 174 173 170 157 144 157 168 163 164 161 164 162 165 172 170 169 177 175 175 174
173 176 173 175 172 178 188 198 199 203 204 207 207 200 196 189 183 170 171 178 177 169 171 174 170 167 158 150 163 165 164 165 169 168 168 172 177 177 182 187 186 183 185
175 173 173 171 167 170 182 196 204 208 207 203 206 198 192 186 185 180 176 177 173 167 170 173 169 167 161 152 157 161 165 167 170 175 177 182 185 189 193 197 198 197 199
170 171 170 167 167 169 183 193 201 203 214 211 199 198 198 190 189 189 183 177 170 167 171 170 170 170 167 153 157 164 167 171 175 182 185 191 196 199 203 206 208 210 213
165 167 169 166 168 169 180 189 202 210 214 207 196 198 194 193 195 187 184 179 172 169 173 173 172 171 171 163 143 152 171 181 185 188 192 198 204 209 212 216 220 222 223
160 164 167 168 170 176 186 199 204 203 204 215 214 210 201 190 184 183 180 176 177 172 171 174 172 166 169 169 152 143 139 190 202 200 201 206 210 213 217 222 227 230 233
162 167 168 171 171 179 183 183 190 190 187 184 202 215 216 199 194 184 182 170 184 172 169 170 172 165 165 169 171 164 120 194 166 205 214 215 218 221 225 227 231 236 240
168 166 169 171 171 175 181 183 189 178 165 175 177 183 195 201 189 182 172 172 183 168 171 175 175 174 167 173 178 182 183 154 160 207 214 221 224 226 230 234 236 241 243
163 165 169 169 166 172 183 188 187 172 172 169 161 154 170 171 175 176 175 173 176 170 168 175 176 169 181 181 177 188 173 166 165 137 203 212 225 232 237 240 243 246 245
160 163 167 166 168 175 182 187 183 173 165 162 161 161 149 147 146 154 155 167 168 170 174 176 176 181 192 184 193 193 191 178 192 176 154 195 215 227 233 238 243 247 251